Location: Bonny Doon Airfield
(37.0704°N, 122.1252°W)
Time: 11:47:09
(UTC-07:00)

Vanguard 3 - All Passes

Search period start: 23 October 2017 00:00
Search period end: 02 November 2017 00:00
Orbit: 510 x 3263 km, 33.3° (Epoch: 22 October)

Date Brightness Start Highest point End Pass type
(mag) Time Alt. Az. Time Alt. Az. Time Alt. Az.
23 Oct - 01:08:33 10° S 01:21:57 23° SE 01:32:54 10° E visible
23 Oct - 03:19:55 10° SW 03:36:52 48° SSE 03:47:46 10° E visible
23 Oct - 05:36:12 10° WSW 05:51:13 69° S 05:59:31 10° E visible
23 Oct - 07:53:33 10° W 08:04:14 63° SSW 08:10:09 10° ESE daylight
23 Oct - 10:10:04 10° W 10:15:18 22° SW 10:19:02 10° SSE daylight
23 Oct - 23:57:45 10° SSE 00:06:20 14° SE 00:14:16 10° ESE night (unlit)
24 Oct - 02:04:27 10° SSW 02:21:14 38° SSE 02:33:26 10° E visible
24 Oct - 04:19:06 10° WSW 04:36:09 63° SSE 04:46:14 10° E visible
24 Oct - 06:36:34 10° W 06:50:05 72° S 06:57:24 10° E visible
24 Oct - 08:53:40 10° W 09:02:16 42° SSW 09:07:24 10° SE daylight
25 Oct - 00:50:23 10° SSW 01:05:27 28° SE 01:17:57 10° E visible
25 Oct - 03:02:31 10° SW 03:20:37 54° SSE 03:32:29 10° E visible
25 Oct - 05:19:14 10° WSW 05:35:20 73° S 05:44:21 10° E visible
25 Oct - 07:36:58 10° W 07:48:38 61° SSW 07:55:03 10° ESE daylight
25 Oct - 09:54:10 10° W 09:59:40 21° SW 10:03:35 10° S daylight
25 Oct - 23:38:32 10° S 23:49:47 18° SE 00:00:14 10° ESE night (unlit)
26 Oct - 01:46:54 10° SW 02:04:44 44° SSE 02:18:05 10° E visible
26 Oct - 04:01:58 10° WSW 04:20:02 68° SSE 04:30:57 10° E visible
26 Oct - 06:19:46 10° W 06:34:21 73° S 06:42:18 10° ESE visible
26 Oct - 08:37:18 10° W 08:46:38 40° SSW 08:52:11 10° SE daylight
27 Oct - 00:32:37 10° SSW 00:48:48 33° SE 01:02:39 10° E visible
27 Oct - 02:45:17 10° SW 03:04:13 59° SSE 03:17:05 10° E visible
27 Oct - 05:02:16 10° WSW 05:19:22 75° S 05:29:09 10° E visible
27 Oct - 07:20:18 10° W 07:32:56 59° SSW 07:39:55 10° ESE daylight
27 Oct - 09:38:13 10° W 09:43:56 19° SW 09:48:03 10° S daylight
27 Oct - 23:20:11 10° S 23:33:06 22° SE 23:45:24 10° E night (unlit)
28 Oct - 01:29:35 10° SW 01:48:07 49° SSE 02:02:35 10° E visible
28 Oct - 03:44:55 10° WSW 04:03:47 72° S 04:15:37 10° E visible
28 Oct - 06:02:54 10° W 06:18:29 72° S 06:27:07 10° ESE visible
28 Oct - 08:20:50 10° W 08:30:52 38° SW 08:36:54 10° SSE daylight
28 Oct - 22:12:30 10° SSE 22:17:45 12° SE 22:23:05 10° ESE visible
29 Oct - 00:15:09 10° SSW 00:32:03 37° SE 00:47:07 10° E visible
29 Oct - 02:28:12 10° WSW 02:47:42 64° SSE 03:01:34 10° E visible
29 Oct - 04:45:19 10° W 05:03:18 77° S 05:13:53 10° E visible
29 Oct - 07:03:32 10° W 07:17:07 57° SSW 07:24:42 10° SE visible
29 Oct - 09:22:13 10° W 09:28:05 18° SW 09:32:23 10° S daylight
29 Oct - 23:02:24 10° S 23:16:17 26° SE 23:30:05 10° E visible
30 Oct - 01:12:29 10° SW 01:31:24 53° SSE 01:46:55 10° E visible
30 Oct - 03:27:57 10° WSW 03:47:26 75° S 04:00:11 10° E visible
30 Oct - 05:46:00 10° W 06:02:31 71° SSW 06:11:53 10° ESE visible
30 Oct - 08:04:17 10° W 08:15:00 35° SW 08:21:31 10° SSE daylight
30 Oct - 21:52:45 10° SSE 22:01:02 15° SE 22:09:39 10° ESE visible
30 Oct - 23:57:59 10° SSW 00:15:10 42° SE 00:31:21 10° E visible
31 Oct - 02:11:16 10° WSW 02:31:06 68° SSE 02:45:57 10° E visible
31 Oct - 04:28:23 10° W 04:47:07 77° S 04:58:32 10° E visible
31 Oct - 06:46:43 10° W 07:01:10 54° SSW 07:09:25 10° SE visible
31 Oct - 09:06:12 10° W 09:12:08 17° SW 09:16:35 10° SSW daylight
31 Oct - 22:45:01 10° S 22:59:23 29° SE 23:14:25 10° E visible
01 Nov - 00:55:34 10° SW 01:14:35 58° SSE 01:31:06 10° E visible
01 Nov - 03:11:05 10° WSW 03:31:00 77° S 03:44:40 10° E visible
01 Nov - 05:29:05 10° W 05:46:26 69° SSW 05:56:33 10° ESE visible
01 Nov - 07:47:41 10° W 07:59:00 33° SW 08:06:02 10° SSE daylight
01 Nov - 21:34:27 10° SSE 21:44:13 17° SE 21:54:51 10° E visible
